,,,PA_Meas_PMT16A,,PR_Meas_QMR101_102,,RH_Meas_QMH101,,SR_Meas_QMS101,,TA_Meas_QMH101,,GenWind,,GenWind,
date,time,status,PA,status,PR,status,RH,status,SR,status,TA,status,DirAvg,status,SpdAvg,
2009-06-01, 00:00:04,VALID,1000.64,VALID,0,VALID,94.0427,VALID,0,VALID,23.8378,VALID,52,VALID,0.838281,
2009-06-01, 00:01:04,VALID,1000.63,VALID,0,VALID,94.0427,VALID,0,VALID,23.8768,VALID,52,VALID,0.926562,
2009-06-01, 00:02:04,VALID,1000.61,VALID,0,VALID,93.768,VALID,0,VALID,23.8768,VALID,67,VALID,0.917578,
2009-06-01, 00:03:04,VALID,1000.61,VALID,0,VALID,93.5697,VALID,0,VALID,23.8786,VALID,68,VALID,0.560547,
2009-06-01, 00:04:04,VALID,1000.6,VALID,0,VALID,93.44,VALID,0,VALID,23.8591,VALID,68,VALID,0.678516,
2009-06-01, 00:05:04,VALID,1000.62,VALID,0,VALID,93.44,VALID,0,VALID,23.7988,VALID,68,VALID,0.737109,
2009-06-01, 00:06:04,VALID,1000.58,VALID,0,VALID,93.6231,VALID,0,VALID,23.8183,VALID,59,VALID,0.680469,
2009-06-01, 00:07:04,VALID,1000.57,VALID,0,VALID,93.6536,VALID,0,VALID,23.8183,VALID,54,VALID,0.689062,
2009-06-01, 00:08:04,VALID,1000.6,VALID,0,VALID,93.5468,VALID,0,VALID,23.8396,VALID,46,VALID,0.69375,
2009-06-01, 00:09:04,VALID,1000.59,VALID,0,VALID,93.2797,VALID,0,VALID,23.7793,VALID,43,VALID,0.718359,
2009-06-01, 00:10:04,VALID,1000.58,VALID,0,VALID,93.1119,VALID,0,VALID,23.7402,VALID,43,VALID,0.641797,
2009-06-01, 00:11:04,VALID,1000.57,VALID,0,VALID,93.1348,VALID,0,VALID,23.7012,VALID,43,VALID,0.573047,
2009-06-01, 00:12:04,VALID,1000.58,VALID,0,VALID,93.1348,VALID,0,VALID,23.6817,VALID,44,VALID,0.585547,
2009-06-01, 00:13:04,VALID,1000.57,VALID,0,VALID,93.1729,VALID,0,VALID,23.6427,VALID,44,VALID,0.541016,
2009-06-01, 00:14:04,VALID,1000.58,VALID,0,VALID,93.2111,VALID,0,VALID,23.6232,VALID,44,VALID,0.575391,
2009-06-01, 00:15:04,VALID,1000.54,VALID,0,VALID,93.2416,VALID,0,VALID,23.6036,VALID,26,VALID,1.02461,
2009-06-01, 00:16:04,VALID,1000.52,VALID,0,VALID,93.44,VALID,0.112286,VALID,23.6036,VALID,3,VALID,1.35195,
2009-06-01, 00:17:04,VALID,1000.56,VALID,0,VALID,93.4476,VALID,0,VALID,23.5841,VALID,351,VALID,0.707812,
2009-06-01, 00:18:04,VALID,1000.54,VALID,0,VALID,93.5697,VALID,0,VALID,23.6036,VALID,242,VALID,0.535156,
2009-06-01, 00:19:04,VALID,1000.57,VALID,0,VALID,93.6383,VALID,0,VALID,23.6036,VALID,244,VALID,0.342969,
2009-06-01, 00:20:04,VALID,1000.58,VALID,0,VALID,93.6383,VALID,0,VALID,23.6036,VALID,345,VALID,0.447656,
2009-06-01, 00:21:04,VALID,1000.56,VALID,0,VALID,93.6307,VALID,0,VALID,23.6036,VALID,345,VALID,0.347266,
2009-06-01, 00:22:04,VALID,1000.54,VALID,0,VALID,93.5849,VALID,0,VALID,23.625,VALID,345,VALID,0.0585938,
2009-06-01, 00:23:04,VALID,1000.54,VALID,0,VALID,93.5926,VALID,0,VALID,23.5841,VALID,345,VALID,0.360156,
2009-06-01, 00:24:04,VALID,1000.49,VALID,0,VALID,93.6078,VALID,0,VALID,23.5841,VALID,18,VALID,0.678906,
2009-06-01, 00:25:04,VALID,1000.43,VALID,0,VALID,93.5544,VALID,0,VALID,23.5646,VALID,54,VALID,0.85625,
2009-06-01, 00:26:04,VALID,1000.38,VALID,0,VALID,93.5163,VALID,0,VALID,23.5646,VALID,65,VALID,1.05664,
2009-06-01, 00:27:04,VALID,1000.36,VALID,0,VALID,93.4247,VALID,0,VALID,23.5451,VALID,64,VALID,1.29141,
2009-06-01, 00:28:04,VALID,1000.33,VALID,0,VALID,93.4934,VALID,0,VALID,23.5859,VALID,64,VALID,1.23555,
2009-06-01, 00:29:04,VALID,1000.29,VALID,0,VALID,93.2874,VALID,0,VALID,23.6036,VALID,63,VALID,1.07773,
2009-06-01, 00:30:04,VALID,1000.25,VALID,0,VALID,93.1729,VALID,0,VALID,23.6036,VALID,65,VALID,0.900391,
2009-06-01, 00:31:04,VALID,1000.23,VALID,0,VALID,93.0661,VALID,0,VALID,23.5841,VALID,65,VALID,0.668359,
2009-06-01, 00:32:04,VALID,1000.21,VALID,0,VALID,92.9135,VALID,0,VALID,23.5646,VALID,65,VALID,0.6,
2009-06-01, 00:33:04,VALID,1000.19,VALID,0,VALID,92.9059,VALID,0,VALID,23.5469,VALID,65,VALID,0.466016,
2009-06-01, 00:34:04,VALID,1000.19,VALID,0,VALID,92.9822,VALID,0,VALID,23.5061,VALID,65,VALID,0.223438,
2009-06-01, 00:35:04,VALID,1000.17,VALID,0,VALID,93.0585,VALID,0,VALID,23.4866,VALID,65,VALID,0.224609,
2009-06-01, 00:36:04,VALID,1000.16,VALID,0,VALID,93.1805,VALID,0,VALID,23.4458,VALID,64,VALID,0.358203,
2009-06-01, 00:37:04,VALID,1000.13,VALID,0,VALID,93.2645,VALID,0,VALID,23.4671,VALID,64,VALID,0.254297,
2009-06-01, 00:38:04,VALID,1000.11,VALID,0,VALID,93.3255,VALID,0,VALID,23.4475,VALID,56,VALID,0.390625,
2009-06-01, 00:39:04,VALID,1000.11,VALID,0,VALID,93.5086,VALID,0,VALID,23.4475,VALID,350,VALID,0.652734,
2009-06-01, 00:40:04,VALID,1000.07,VALID,0,VALID,93.562,VALID,0,VALID,23.4866,VALID,342,VALID,0.879297,
2009-06-01, 00:41:04,VALID,1000.04,VALID,0,VALID,93.6307,VALID,0,VALID,23.5061,VALID,357,VALID,0.978125,
2009-06-01, 00:42:04,VALID,1000.07,VALID,0,VALID,93.5163,VALID,0,VALID,23.5061,VALID,358,VALID,0.869531,
2009-06-01, 00:43:04,VALID,1000.08,VALID,0,VALID,93.2111,VALID,0,VALID,23.4866,VALID,17,VALID,0.915234,
2009-06-01, 00:44:04,VALID,1000.09,VALID,0,VALID,93.0966,VALID,0,VALID,23.428,VALID,36,VALID,1.0832,
2009-06-01, 00:45:04,VALID,1000.1,VALID,0,VALID,93.3484,VALID,0,VALID,23.4475,VALID,44,VALID,1.14336,
2009-06-01, 00:46:04,VALID,1000.08,VALID,0,VALID,93.1348,VALID,0,VALID,23.428,VALID,49,VALID,1.00937,
2009-06-01, 00:47:04,VALID,1000.07,VALID,0,VALID,93.295,VALID,0,VALID,23.4085,VALID,48,VALID,1.45469,
2009-06-01, 00:48:04,VALID,1000.06,VALID,0,VALID,93.4476,VALID,0,VALID,23.389,VALID,45,VALID,1.12344,
2009-06-01, 00:49:04,VALID,1000.07,VALID,0,VALID,93.4857,VALID,0,VALID,23.3695,VALID,46,VALID,1.17188,
2009-06-01, 00:50:04,VALID,1000.08,VALID,0,VALID,93.4705,VALID,0.112286,VALID,23.3695,VALID,43,VALID,0.941406,
2009-06-01, 00:51:04,VALID,1000.05,VALID,0,VALID,93.4094,VALID,0,VALID,23.3287,VALID,38,VALID,0.761719,
2009-06-01, 00:52:04,VALID,1000.07,VALID,0,VALID,93.3713,VALID,0,VALID,23.311,VALID,25,VALID,0.678906,
2009-06-01, 00:53:04,VALID,1000.1,VALID,0,VALID,93.3713,VALID,0,VALID,23.2915,VALID,15,VALID,0.751172,
2009-06-01, 00:54:04,VALID,1000.05,VALID,0,VALID,93.6383,VALID,0,VALID,23.2915,VALID,7,VALID,1.12305,
2009-06-01, 00:55:04,VALID,1000.03,VALID,0,VALID,93.7757,VALID,0,VALID,23.2915,VALID,7,VALID,1.19922,
2009-06-01, 00:56:04,VALID,1000.01,VALID,0,VALID,93.7451,VALID,0,VALID,23.311,VALID,11,VALID,1.03906,
2009-06-01, 00:57:04,VALID,1000,VALID,0,VALID,93.6002,VALID,0,VALID,23.311,VALID,12,VALID,0.844141,
2009-06-01, 00:58:04,VALID,1000.01,VALID,0,VALID,93.501,VALID,0,VALID,23.2915,VALID,21,VALID,0.996094,
2009-06-01, 00:59:04,VALID,999.977,VALID,0,VALID,93.4171,VALID,0,VALID,23.2719,VALID,30,VALID,0.967578,
2009-06-01, 01:00:04,VALID,999.98,VALID,0,VALID,93.3713,VALID,0,VALID,23.2719,VALID,30,VALID,0.9625,
2009-06-01, 01:01:04,VALID,999.985,VALID,0,VALID,93.3942,VALID,0,VALID,23.2915,VALID,30,VALID,0.930469,
2009-06-01, 01:02:04,VALID,999.994,VALID,0,VALID,93.3103,VALID,0,VALID,23.311,VALID,30,VALID,0.829297,
2009-06-01, 01:03:04,VALID,999.996,VALID,0,VALID,93.2111,VALID,0,VALID,23.311,VALID,30,VALID,0.623438,
2009-06-01, 01:04:04,VALID,1000.02,VALID,0,VALID,93.1653,VALID,0,VALID,23.3127,VALID,31,VALID,0.512109,
2009-06-01, 01:05:04,VALID,1000.02,VALID,0,VALID,93.1805,VALID,0,VALID,23.2915,VALID,36,VALID,0.405078,
2009-06-01, 01:06:04,VALID,1000.03,VALID,0,VALID,93.1958,VALID,0,VALID,23.2915,VALID,36,VALID,0.391016,
2009-06-01, 01:07:04,VALID,1000.03,VALID,0,VALID,93.3789,VALID,0,VALID,23.2932,VALID,63,VALID,0.778125,
2009-06-01, 01:08:04,VALID,1000,VALID,0,VALID,93.44,VALID,0,VALID,23.2719,VALID,62,VALID,0.643359,
2009-06-01, 01:09:04,VALID,999.999,VALID,0,VALID,93.4323,VALID,0,VALID,23.2915,VALID,55,VALID,0.688672,
2009-06-01, 01:10:04,VALID,999.964,VALID,0,VALID,93.4705,VALID,0,VALID,23.2915,VALID,50,VALID,0.880078,
2009-06-01, 01:11:04,VALID,999.987,VALID,0,VALID,93.4705,VALID,0,VALID,23.2915,VALID,51,VALID,1.04336,
2009-06-01, 01:12:04,VALID,999.983,VALID,0,VALID,93.4247,VALID,0,VALID,23.2702,VALID,50,VALID,1.11055,
2009-06-01, 01:13:04,VALID,999.96,VALID,0,VALID,93.4628,VALID,0,VALID,23.2915,VALID,55,VALID,1.13437,
2009-06-01, 01:14:04,VALID,999.998,VALID,0,VALID,93.4476,VALID,0,VALID,23.311,VALID,63,VALID,1.23867,
2009-06-01, 01:15:04,VALID,1000,VALID,0,VALID,93.4247,VALID,0,VALID,23.3518,VALID,71,VALID,0.905078,
2009-06-01, 01:16:04,VALID,1000.02,VALID,0,VALID,93.3331,VALID,0,VALID,23.311,VALID,73,VALID,1.13047,
2009-06-01, 01:17:04,VALID,1000.01,VALID,0,VALID,93.356,VALID,0,VALID,23.3305,VALID,71,VALID,1.14141,
2009-06-01, 01:18:04,VALID,1000.05,VALID,0,VALID,93.3255,VALID,0,VALID,23.3305,VALID,80,VALID,1.02578,
2009-06-01, 01:19:04,VALID,1000.03,VALID,0,VALID,93.3255,VALID,0,VALID,23.3305,VALID,101,VALID,0.958594,
2009-06-01, 01:20:04,VALID,1000.03,VALID,0,VALID,93.3637,VALID,0,VALID,23.3305,VALID,111,VALID,0.796484,
2009-06-01, 01:21:04,VALID,1000.02,VALID,0,VALID,93.4934,VALID,0,VALID,23.3713,VALID,109,VALID,0.769922,
2009-06-01, 01:22:04,VALID,1000.02,VALID,0,VALID,93.4628,VALID,0,VALID,23.3305,VALID,108,VALID,0.570703,
2009-06-01, 01:23:05,VALID,1000.06,VALID,0,VALID,93.5544,VALID,0,VALID,23.35,VALID,104,VALID,0.66875,
2009-06-01, 01:24:05,VALID,999.992,VALID,0,VALID,93.6307,VALID,0,VALID,23.35,VALID,102,VALID,0.622656,
2009-06-01, 01:25:05,VALID,999.985,VALID,0,VALID,93.6765,VALID,0,VALID,23.35,VALID,102,VALID,0.427344,
2009-06-01, 01:26:05,VALID,1000.01,VALID,0,VALID,93.646,VALID,0,VALID,23.3305,VALID,102,VALID,0.065625,
2009-06-01, 01:27:05,VALID,999.973,VALID,0,VALID,93.6231,VALID,0,VALID,23.3305,VALID,102,VALID,0.283984,
2009-06-01, 01:28:05,VALID,999.967,VALID,0,VALID,93.6612,VALID,0,VALID,23.311,VALID,100,VALID,0.2375,
2009-06-01, 01:29:05,VALID,999.958,VALID,0,VALID,93.6078,VALID,0,VALID,23.311,VALID,16,VALID,0.653516,
2009-06-01, 01:30:05,VALID,999.935,VALID,0,VALID,93.7146,VALID,0,VALID,23.311,VALID,356,VALID,0.626172,
2009-06-01, 01:31:05,VALID,999.916,VALID,0,VALID,93.6994,VALID,0,VALID,23.2897,VALID,341,VALID,0.828125,
2009-06-01, 01:32:05,VALID,999.908,VALID,0,VALID,93.6917,VALID,0,VALID,23.2719,VALID,336,VALID,1.03047,
2009-06-01, 01:33:05,VALID,999.924,VALID,0,VALID,93.7528,VALID,0,VALID,23.3127,VALID,336,VALID,0.978125,
2009-06-01, 01:34:05,VALID,999.901,VALID,0,VALID,93.7451,VALID,0,VALID,23.2915,VALID,336,VALID,0.969141,
2009-06-01, 01:35:05,VALID,999.925,VALID,0,VALID,93.7375,VALID,0,VALID,23.2915,VALID,350,VALID,0.767578,
2009-06-01, 01:36:05,VALID,999.93,VALID,0,VALID,93.6841,VALID,0,VALID,23.2915,VALID,354,VALID,0.911719,
2009-06-01, 01:37:05,VALID,999.951,VALID,0,VALID,93.6231,VALID,0,VALID,23.2932,VALID,357,VALID,0.869141,
2009-06-01, 01:38:05,VALID,999.931,VALID,0,VALID,93.5163,VALID,0,VALID,23.2719,VALID,14,VALID,0.7875,
2009-06-01, 01:39:05,VALID,999.972,VALID,0,VALID,93.5315,VALID,0,VALID,23.2312,VALID,19,VALID,0.821094,
2009-06-01, 01:40:05,VALID,999.963,VALID,0,VALID,93.5544,VALID,0,VALID,23.2329,VALID,36,VALID,0.651563,
2009-06-01, 01:41:05,VALID,999.973,VALID,0,VALID,93.5849,VALID,0,VALID,23.2329,VALID,49,VALID,0.835547,
2009-06-01, 01:42:05,VALID,999.995,VALID,0,VALID,93.6307,VALID,0,VALID,23.2329,VALID,49,VALID,0.669141,
2009-06-01, 01:43:05,VALID,999.994,VALID,0,VALID,93.6383,VALID,0,VALID,23.2524,VALID,57,VALID,0.574609,
2009-06-01, 01:44:05,VALID,1000.01,VALID,0,VALID,93.6536,VALID,0,VALID,23.2524,VALID,74,VALID,0.744141,
2009-06-01, 01:45:05,VALID,1000.01,VALID,0,VALID,93.6994,VALID,0,VALID,23.2719,VALID,67,VALID,0.911719,
2009-06-01, 01:46:05,VALID,999.967,VALID,0,VALID,93.6231,VALID,0,VALID,23.2915,VALID,66,VALID,0.485547,
2009-06-01, 01:47:05,VALID,999.952,VALID,0,VALID,93.5773,VALID,0.112286,VALID,23.311,VALID,73,VALID,0.670313,
2009-06-01, 01:48:05,VALID,999.942,VALID,0,VALID,93.4628,VALID,0,VALID,23.3323,VALID,72,VALID,0.623828,
2009-06-01, 01:49:05,VALID,999.921,VALID,0,VALID,93.4094,VALID,0,VALID,23.311,VALID,72,VALID,0.661719,
2009-06-01, 01:50:05,VALID,999.912,VALID,0,VALID,93.3942,VALID,0,VALID,23.311,VALID,83,VALID,0.602734,
2009-06-01, 01:51:05,VALID,999.863,VALID,0,VALID,93.4705,VALID,0,VALID,23.311,VALID,92,VALID,0.411328,
2009-06-01, 01:52:05,VALID,999.851,VALID,0,VALID,93.5773,VALID,0,VALID,23.3518,VALID,94,VALID,0.545703,
2009-06-01, 01:53:05,VALID,999.858,VALID,0,VALID,93.6688,VALID,0,VALID,23.3695,VALID,108,VALID,0.484375,
2009-06-01, 01:54:05,VALID,999.85,VALID,0,VALID,93.6231,VALID,0,VALID,23.389,VALID,112,VALID,0.566797,
2009-06-01, 01:55:05,VALID,999.854,VALID,0,VALID,93.562,VALID,0,VALID,23.4493,VALID,104,VALID,0.691406,
2009-06-01, 01:56:05,VALID,999.882,VALID,0,VALID,93.4628,VALID,0,VALID,23.4475,VALID,104,VALID,0.492969,
2009-06-01, 01:57:05,VALID,999.886,VALID,0,VALID,93.4247,VALID,0,VALID,23.4671,VALID,104,VALID,0.491797,
2009-06-01, 01:58:05,VALID,999.886,VALID,0,VALID,93.3179,VALID,0,VALID,23.4866,VALID,99,VALID,0.487891,
2009-06-01, 01:59:05,VALID,999.898,VALID,0,VALID,93.2492,VALID,0,VALID,23.5061,VALID,99,VALID,0.531641,
2009-06-01, 02:00:05,VALID,999.927,VALID,0,VALID,93.1958,VALID,0,VALID,23.4848,VALID,109,VALID,0.346875,
2009-06-01, 02:01:05,VALID,999.894,VALID,0,VALID,93.1043,VALID,0,VALID,23.5256,VALID,106,VALID,0.298438,
2009-06-01, 02:02:05,VALID,999.936,VALID,0,VALID,93.0585,VALID,0,VALID,23.5256,VALID,84,VALID,0.505469,
2009-06-01, 02:03:05,VALID,999.95,VALID,0,VALID,92.9822,VALID,0,VALID,23.5451,VALID,84,VALID,0.484375,
2009-06-01, 02:04:05,VALID,999.957,VALID,0,VALID,92.8601,VALID,0,VALID,23.5646,VALID,84,VALID,0.251563,
2009-06-01, 02:05:05,VALID,999.925,VALID,0,VALID,92.7991,VALID,0,VALID,23.5841,VALID,84,VALID,0.236328,
2009-06-01, 02:06:05,VALID,999.952,VALID,0,VALID,92.738,VALID,0,VALID,23.5646,VALID,84,VALID,0.344922,
2009-06-01, 02:07:05,VALID,999.929,VALID,0,VALID,92.6465,VALID,0,VALID,23.5841,VALID,3,VALID,0.624219,
2009-06-01, 02:08:05,VALID,999.914,VALID,0,VALID,92.5626,VALID,0,VALID,23.5646,VALID,352,VALID,0.729688,
2009-06-01, 02:09:05,VALID,999.924,VALID,0,VALID,92.532,VALID,0,VALID,23.5646,VALID,352,VALID,0.707031,
2009-06-01, 02:10:05,VALID,999.926,VALID,0,VALID,92.5397,VALID,0,VALID,23.5451,VALID,352,VALID,0.442969,
2009-06-01, 02:11:05,VALID,999.901,VALID,0,VALID,92.5931,VALID,0,VALID,23.5646,VALID,352,VALID,0.596094,
2009-06-01, 02:12:05,VALID,999.917,VALID,0,VALID,92.5091,VALID,0,VALID,23.5256,VALID,352,VALID,0.613672,
2009-06-01, 02:13:05,VALID,999.903,VALID,0,VALID,92.5702,VALID,0,VALID,23.5061,VALID,352,VALID,0.415625,
2009-06-01, 02:14:05,VALID,999.892,VALID,0,VALID,92.6541,VALID,0,VALID,23.4866,VALID,352,VALID,0.337891,
2009-06-01, 02:15:05,VALID,999.862,VALID,0,VALID,92.7685,VALID,0,VALID,23.4866,VALID,106,VALID,0.552344,
2009-06-01, 02:16:05,VALID,999.857,VALID,0,VALID,92.7762,VALID,0,VALID,23.5061,VALID,112,VALID,0.612891,
2009-06-01, 02:17:05,VALID,999.843,VALID,0,VALID,92.7075,VALID,0,VALID,23.5256,VALID,112,VALID,0.377344,
2009-06-01, 02:18:05,VALID,999.871,VALID,0,VALID,92.5931,VALID,0,VALID,23.6054,VALID,112,VALID,0.0882813,
2009-06-01, 02:19:05,VALID,999.808,VALID,0,VALID,92.5091,VALID,0,VALID,23.5841,VALID,112,VALID,0,
2009-06-01, 02:20:05,VALID,999.846,VALID,0,VALID,92.3184,VALID,0,VALID,23.5841,VALID,112,VALID,0.00273437,
2009-06-01, 02:21:05,VALID,999.818,VALID,0,VALID,92.1429,VALID,0,VALID,23.5646,VALID,112,VALID,0.335547,
2009-06-01, 02:22:05,VALID,999.808,VALID,0,VALID,92.1506,VALID,0,VALID,23.5433,VALID,112,VALID,0.194141,
2009-06-01, 02:23:05,VALID,999.827,VALID,0,VALID,92.1963,VALID,0,VALID,23.5451,VALID,112,VALID,0.347656,
2009-06-01, 02:24:05,VALID,999.779,VALID,0,VALID,92.265,VALID,0,VALID,23.5451,VALID,112,VALID,0.34375,
2009-06-01, 02:25:05,VALID,999.789,VALID,0,VALID,92.4176,VALID,0,VALID,23.5256,VALID,99,VALID,0.380078,
2009-06-01, 02:26:05,VALID,999.804,VALID,0,VALID,92.3413,VALID,0,VALID,23.5469,VALID,94,VALID,0.244922,
2009-06-01, 02:27:05,VALID,999.783,VALID,0,VALID,92.3184,VALID,0,VALID,23.5256,VALID,91,VALID,0.459766,
2009-06-01, 02:28:05,VALID,999.777,VALID,0,VALID,92.3184,VALID,0,VALID,23.5256,VALID,36,VALID,0.466406,
2009-06-01, 02:29:05,VALID,999.774,VALID,0,VALID,92.3718,VALID,0,VALID,23.5256,VALID,36,VALID,0.349609,
2009-06-01, 02:30:05,VALID,999.772,VALID,0,VALID,92.5015,VALID,0,VALID,23.5256,VALID,35,VALID,0.401172,
2009-06-01, 02:31:05,VALID,999.77,VALID,0,VALID,92.3871,VALID,0,VALID,23.5256,VALID,35,VALID,0.361719,
2009-06-01, 02:32:05,VALID,999.778,VALID,0,VALID,92.4405,VALID,0,VALID,23.5274,VALID,35,VALID,0.384375,
2009-06-01, 02:33:05,VALID,999.772,VALID,0,VALID,92.6083,VALID,0,VALID,23.5256,VALID,106,VALID,0.247266,
2009-06-01, 02:34:05,VALID,999.768,VALID,0,VALID,92.6694,VALID,0,VALID,23.5061,VALID,106,VALID,0.425781,
2009-06-01, 02:35:05,VALID,999.754,VALID,0,VALID,92.6388,VALID,0,VALID,23.5451,VALID,106,VALID,0.321094,
2009-06-01, 02:36:05,VALID,999.739,VALID,0,VALID,92.5702,VALID,0,VALID,23.5646,VALID,106,VALID,0.350781,
2009-06-01, 02:37:05,VALID,999.769,VALID,0,VALID,92.3718,VALID,0,VALID,23.5841,VALID,106,VALID,0.357422,
2009-06-01, 02:38:05,VALID,999.742,VALID,0,VALID,92.2192,VALID,0,VALID,23.6232,VALID,95,VALID,0.321094,
2009-06-01, 02:39:05,VALID,999.761,VALID,0,VALID,91.998,VALID,0,VALID,23.6622,VALID,95,VALID,0.189063,
2009-06-01, 02:40:05,VALID,999.749,VALID,0,VALID,91.792,VALID,0,VALID,23.7012,VALID,93,VALID,0.352344,
2009-06-01, 02:41:05,VALID,999.746,VALID,0,VALID,91.708,VALID,0,VALID,23.7207,VALID,70,VALID,0.438672,
2009-06-01, 02:42:05,VALID,999.728,VALID,0,VALID,91.647,VALID,0,VALID,23.7402,VALID,33,VALID,0.480469,
2009-06-01, 02:43:05,VALID,999.734,VALID,0,VALID,91.586,VALID,0,VALID,23.7616,VALID,33,VALID,0.530469,
2009-06-01, 02:44:05,VALID,999.7,VALID,0,VALID,91.6394,VALID,0,VALID,23.7597,VALID,33,VALID,0.435937,
2009-06-01, 02:45:05,VALID,999.675,VALID,0,VALID,91.4715,VALID,0,VALID,23.7988,VALID,33,VALID,0.498047,
2009-06-01, 02:46:05,VALID,999.683,VALID,0,VALID,91.4105,VALID,0,VALID,23.8183,VALID,33,VALID,0.319141,
2009-06-01, 02:47:05,VALID,999.676,VALID,0,VALID,91.4105,VALID,0,VALID,23.8378,VALID,33,VALID,0.232031,
2009-06-01, 02:48:05,VALID,999.661,VALID,0,VALID,91.4334,VALID,0,VALID,23.8183,VALID,33,VALID,0.166016,
2009-06-01, 02:49:05,VALID,999.662,VALID,0,VALID,91.441,VALID,0,VALID,23.8183,VALID,33,VALID,0.228906,
2009-06-01, 02:50:05,VALID,999.67,VALID,0,VALID,91.4563,VALID,0,VALID,23.8183,VALID,33,VALID,0.227734,
2009-06-01, 02:51:05,VALID,999.661,VALID,0,VALID,91.2045,VALID,0,VALID,23.8183,VALID,33,VALID,0.280859,
2009-06-01, 02:52:05,VALID,999.668,VALID,0,VALID,91.1587,VALID,0,VALID,23.8591,VALID,33,VALID,0.264062,
2009-06-01, 02:53:05,VALID,999.648,VALID,0,VALID,90.9222,VALID,0,VALID,23.8591,VALID,104,VALID,0.387109,
2009-06-01, 02:54:05,VALID,999.649,VALID,0,VALID,90.5102,VALID,0,VALID,23.8573,VALID,134,VALID,0.510547,
2009-06-01, 02:55:05,VALID,999.633,VALID,0,VALID,90.1058,VALID,0,VALID,23.9372,VALID,136,VALID,0.385938,
2009-06-01, 02:56:05,VALID,999.622,VALID,0,VALID,89.8922,VALID,0,VALID,23.9762,VALID,120,VALID,0.636328,
2009-06-01, 02:57:05,VALID,999.581,VALID,0,VALID,89.4344,VALID,0,VALID,24.0134,VALID,93,VALID,1.26406,
2009-06-01, 02:58:05,VALID,999.556,VALID,0,VALID,89.0148,VALID,0,VALID,24.0915,VALID,97,VALID,1.14922,
2009-06-01, 02:59:05,VALID,999.54,VALID,0,VALID,88.618,VALID,0,VALID,24.1714,VALID,94,VALID,1.40937,
2009-06-01, 03:00:05,VALID,999.561,VALID,0,VALID,88.2594,VALID,0,VALID,24.1891,VALID,97,VALID,1.34766,
2009-06-01, 03:01:05,VALID,999.524,VALID,0,VALID,88.084,VALID,0,VALID,24.2476,VALID,92,VALID,1.00039,
2009-06-01, 03:02:05,VALID,999.532,VALID,0,VALID,88.0763,VALID,0,VALID,24.2476,VALID,108,VALID,0.999609,
2009-06-01, 03:03:05,VALID,999.532,VALID,0,VALID,88.3052,VALID,0,VALID,24.2671,VALID,92,VALID,1.0293,
2009-06-01, 03:04:05,VALID,999.537,VALID,0,VALID,88.29,VALID,0,VALID,24.269,VALID,108,VALID,1.08164,
2009-06-01, 03:05:05,VALID,999.554,VALID,0,VALID,88.3281,VALID,0,VALID,24.2476,VALID,118,VALID,0.848828,
2009-06-01, 03:06:05,VALID,999.56,VALID,0,VALID,88.0687,VALID,0,VALID,24.2476,VALID,118,VALID,0.753906,
2009-06-01, 03:07:05,VALID,999.571,VALID,0,VALID,88.206,VALID,0,VALID,24.2476,VALID,90,VALID,0.713672,
2009-06-01, 03:08:05,VALID,999.56,VALID,0,VALID,88.3739,VALID,0,VALID,24.2476,VALID,90,VALID,0.38125,
2009-06-01, 03:09:05,VALID,999.576,VALID,0,VALID,88.3663,VALID,0,VALID,24.2281,VALID,90,VALID,0.431641,
2009-06-01, 03:10:05,VALID,999.555,VALID,0,VALID,88.5036,VALID,0,VALID,24.2281,VALID,67,VALID,0.616016,
2009-06-01, 03:11:05,VALID,999.595,VALID,0,VALID,88.6714,VALID,0,VALID,24.2104,VALID,67,VALID,0.311328,
2009-06-01, 03:12:05,VALID,999.566,VALID,0,VALID,88.8622,VALID,0,VALID,24.1696,VALID,67,VALID,0.247656,
2009-06-01, 03:13:05,VALID,999.572,VALID,0,VALID,88.9232,VALID,0,VALID,24.15,VALID,67,VALID,0.320313,
2009-06-01, 03:14:05,VALID,999.544,VALID,0,VALID,88.9843,VALID,0,VALID,24.1519,VALID,67,VALID,0.262891,
2009-06-01, 03:15:05,VALID,999.561,VALID,0,VALID,89.2437,VALID,0,VALID,24.111,VALID,67,VALID,0.292969,
2009-06-01, 03:16:05,VALID,999.562,VALID,0,VALID,89.1979,VALID,0,VALID,24.0915,VALID,67,VALID,0.472266,
2009-06-01, 03:17:05,VALID,999.549,VALID,0,VALID,89.1368,VALID,0,VALID,24.072,VALID,67,VALID,0.516406,
2009-06-01, 03:18:05,VALID,999.536,VALID,0,VALID,89.2589,VALID,0,VALID,24.072,VALID,67,VALID,0.540234,
2009-06-01, 03:19:05,VALID,999.529,VALID,0,VALID,89.175,VALID,0,VALID,24.072,VALID,74,VALID,0.567578,
2009-06-01, 03:20:05,VALID,999.558,VALID,0,VALID,88.6333,VALID,0,VALID,24.0915,VALID,107,VALID,0.654297,
2009-06-01, 03:21:05,VALID,999.569,VALID,0,VALID,88.3968,VALID,0,VALID,24.1305,VALID,86,VALID,0.983984,
2009-06-01, 03:22:05,VALID,999.545,VALID,0,VALID,88.5189,VALID,0,VALID,24.1891,VALID,86,VALID,0.755859,
2009-06-01, 03:23:05,VALID,999.561,VALID,0,VALID,88.8469,VALID,0,VALID,24.2086,VALID,44,VALID,0.808984,
2009-06-01, 03:24:05,VALID,999.54,VALID,0,VALID,89.4802,VALID,0,VALID,24.1696,VALID,33,VALID,0.839844,
2009-06-01, 03:25:05,VALID,999.531,VALID,0,VALID,90.0906,VALID,0,VALID,24.072,VALID,20,VALID,0.821484,
2009-06-01, 03:26:05,VALID,999.537,VALID,0,VALID,90.4644,VALID,0,VALID,23.9957,VALID,18,VALID,0.901563,
2009-06-01, 03:27:05,VALID,999.54,VALID,0,VALID,90.7543,VALID,0,VALID,23.9372,VALID,14,VALID,0.803125,
2009-06-01, 03:28:05,VALID,999.532,VALID,0,VALID,90.8917,VALID,0,VALID,23.8768,VALID,16,VALID,0.654688,
2009-06-01, 03:29:05,VALID,999.531,VALID,0,VALID,90.5254,VALID,0,VALID,23.8183,VALID,28,VALID,0.739453,
2009-06-01, 03:30:05,VALID,999.504,VALID,0,VALID,90.1821,VALID,0,VALID,23.797,VALID,50,VALID,1.13242,
2009-06-01, 03:31:05,VALID,999.547,VALID,0,VALID,90.0829,VALID,0,VALID,23.8378,VALID,51,VALID,1.03867,
2009-06-01, 03:32:05,VALID,999.493,VALID,0,VALID,90.0448,VALID,0,VALID,23.8378,VALID,52,VALID,0.941016,
2009-06-01, 03:33:05,VALID,999.459,VALID,0,VALID,90.144,VALID,0,VALID,23.8573,VALID,55,VALID,0.952344,
2009-06-01, 03:34:05,VALID,999.508,VALID,0,VALID,90.4339,VALID,0,VALID,23.8573,VALID,55,VALID,0.810547,
2009-06-01, 03:35:05,VALID,999.507,VALID,0,VALID,90.5254,VALID,0,VALID,23.8378,VALID,54,VALID,1.00937,
2009-06-01, 03:36:05,VALID,999.505,VALID,0,VALID,90.7085,VALID,0,VALID,23.8378,VALID,55,VALID,0.830859,
2009-06-01, 03:37:05,VALID,999.536,VALID,0,VALID,90.7543,VALID,0,VALID,23.8378,VALID,51,VALID,0.888672,
2009-06-01, 03:38:05,VALID,999.513,VALID,0,VALID,90.9374,VALID,0,VALID,23.8183,VALID,46,VALID,0.936719,
2009-06-01, 03:39:05,VALID,999.538,VALID,0,VALID,90.9603,VALID,0,VALID,23.8183,VALID,52,VALID,1.05859,
2009-06-01, 03:40:05,VALID,999.533,VALID,0,VALID,91.0519,VALID,0,VALID,23.7988,VALID,42,VALID,1.0832,
2009-06-01, 03:41:05,VALID,999.56,VALID,0,VALID,91.2426,VALID,0,VALID,23.8201,VALID,30,VALID,0.975781,
2009-06-01, 03:42:05,VALID,999.599,VALID,0,VALID,91.4105,VALID,0,VALID,23.7793,VALID,22,VALID,0.755078,
2009-06-01, 03:43:05,VALID,999.602,VALID,0,VALID,91.4639,VALID,0,VALID,23.7793,VALID,4,VALID,0.809766,
2009-06-01, 03:44:05,VALID,999.663,VALID,0,VALID,91.4563,VALID,0,VALID,23.7793,VALID,4,VALID,0.951172,
2009-06-01, 03:45:05,VALID,999.604,VALID,0,VALID,91.1206,VALID,0,VALID,23.7793,VALID,2,VALID,0.908203,
2009-06-01, 03:46:05,VALID,999.613,VALID,0,VALID,90.9756,VALID,0,VALID,23.7988,VALID,357,VALID,0.722656,